GW0939 Weather Reports


time (UTC)temp
F
wind
direction
speed
knots
gust
knots
rain 1hr
in
rain 24hr
in
rain mn
in
humidity
%
barometer
mb
20260504110604 42 290 0.0 0.0 0.00 0.00 0.00 72 1011.9
20260504100607 42 219 0.0 0.0 0.00 0.00 0.00 71 1011.6
20260504100104 42 219 0.0 0.0 0.00 0.00 0.00 71 1011.6
20260504090105 41 219 0.0 0.0 0.00 0.00 0.00 73 1011.5
20260504081607 40 219 0.0 0.0 0.00 0.00 0.00 75 1011.4
20260504080605 40 219 0.0 0.0 0.00 0.00 0.00 75 1011.3
20260504080104 40 219 0.0 0.0 0.00 0.00 0.00 74 1011.3
20260504070105 40 219 0.0 0.0 0.00 0.00 0.00 73 1011.1
20260504060104 41 219 0.0 0.0 0.00 0.00 0.00 70 1011.0
20260504050604 43 219 0.0 0.0 0.00 0.00 0.00 68 1011.1
20260504045604 43 219 0.0 0.0 0.00 0.00 0.00 68 1010.9
20260504045103 43 219 0.0 0.0 0.00 0.00 0.00 67 1011.0
20260504044606 43 219 0.0 0.0 0.00 0.00 0.00 67 1010.9
20260504044102 43 219 0.0 0.0 0.00 0.00 0.00 67 1010.9
20260504043604 43 219 0.0 0.0 0.00 0.00 0.00 66 1010.9
20260504043102 44 219 0.0 0.0 0.00 0.00 0.00 66 1010.9
20260504042605 44 219 0.0 0.0 0.00 0.00 0.00 67 1011.0
20260504042102 44 219 0.0 0.0 0.00 0.00 0.00 67 1011.0
20260504041104 44 219 0.0 0.0 0.00 0.00 0.00 68 1010.9
20260504040605 44 219 0.0 0.0 0.00 0.00 0.00 68 1010.8
20260504040105 44 219 0.0 0.0 0.00 0.00 0.00 67 1010.8
20260504035607 44 219 0.0 0.0 0.00 0.00 0.00 67 1010.7
20260504035105 44 219 0.0 0.0 0.00 0.00 0.00 67 1010.7
20260504034606 44 219 0.0 0.0 0.00 0.00 0.00 67 1010.7
20260504034105 45 219 0.0 0.0 0.00 0.00 0.00 67 1010.8
20260504033606 45 219 0.0 0.0 0.00 0.00 0.00 66 1010.7
20260504033104 45 219 0.0 0.0 0.00 0.00 0.00 66 1010.7
20260504032605 45 219 0.0 0.0 0.00 0.00 0.00 66 1010.7
20260504032106 45 219 0.0 0.0 0.00 0.00 0.00 65 1010.6
20260504031605 45 219 0.0 0.0 0.00 0.00 0.00 65 1010.6
20260504031104 45 219 0.0 0.0 0.00 0.00 0.00 64 1010.7
20260504030606 46 219 0.0 0.0 0.00 0.00 0.00 62 1010.7
20260504030104 46 219 0.0 0.0 0.00 0.00 0.00 62 1010.7
20260504025605 46 219 0.0 0.0 0.00 0.00 0.00 61 1010.7
20260504025103 46 219 0.0 0.0 0.00 0.00 0.00 60 1010.6
20260504024605 46 219 0.0 0.0 0.00 0.00 0.00 59 1010.7
20260504024104 46 219 0.0 0.0 0.00 0.00 0.00 58 1010.8
20260504023603 47 219 0.0 0.0 0.00 0.00 0.00 58 1010.8
20260504023103 47 219 0.0 0.0 0.00 0.00 0.00 58 1010.7
20260504022604 47 219 0.0 0.0 0.00 0.00 0.00 58 1010.8
20260504021605 47 219 0.0 0.0 0.00 0.00 0.00 57 1010.7
20260504021103 48 219 0.0 0.0 0.00 0.00 0.00 57 1010.7
20260504020604 48 219 0.0 0.0 0.00 0.00 0.00 56 1010.7
20260504015607 49 219 0.0 0.0 0.00 0.00 0.00 54 1010.7
20260504015106 49 219 0.0 0.0 0.00 0.00 0.00 53 1010.7
20260504014606 49 219 0.0 0.0 0.00 0.00 0.00 52 1010.7
20260504014105 50 219 0.0 0.0 0.00 0.00 0.00 52 1010.8
20260504013606 50 219 0.0 0.0 0.00 0.00 0.00 51 1010.8
20260504013105 51 219 0.0 0.0 0.00 0.00 0.00 50 1010.7
20260504012608 51 219 0.0 0.0 0.00 0.00 0.00 49 1010.7
20260504012106 51 219 0.0 0.0 0.00 0.00 0.00 49 1010.5
20260504011605 51 219 0.0 0.0 0.00 0.00 0.00 48 1010.7
20260504011104 52 219 0.0 0.0 0.00 0.00 0.00 47 1010.6
20260504010607 52 219 0.0 0.0 0.00 0.00 0.00 48 1010.6
20260504010106 52 219 0.0 0.0 0.00 0.00 0.00 46 1010.5
20260504005607 52 219 0.0 0.0 0.00 0.00 0.00 46 1010.5
20260504005103 53 219 0.0 0.0 0.00 0.00 0.00 46 1010.4
20260504004607 53 219 0.0 0.9 0.00 0.00 0.00 46 1010.3
20260504004105 53 219 0.0 1.7 0.00 0.00 0.00 45 1010.2
20260504003605 53 220 0.0 1.7 0.00 0.00 0.00 44 1010.2
20260504003106 54 245 0.0 1.7 0.00 0.00 0.00 44 1010.2
20260504002607 54 245 0.9 1.7 0.00 0.00 0.00 44 1010.2
20260504002105 54 254 0.0 1.7 0.00 0.00 0.00 44 1010.0
20260504001104 55 222 0.9 2.6 0.00 0.00 0.00 42 1009.9
20260503235105 56 237 0.9 1.7 0.00 0.00 0.00 41 1009.4
20260503234607 56 205 0.9 1.7 0.00 0.00 0.00 41 1009.4
20260503234106 56 201 0.0 1.7 0.00 0.00 0.00 41 1009.4
20260503233605 56 175 0.0 1.7 0.00 0.00 0.00 39 1009.4
20260503233106 56 150 0.0 2.6 0.00 0.00 0.00 40 1009.3
20260503232607 56 100 0.9 2.6 0.00 0.00 0.00 39 1009.4
20260503232105 56 277 0.9 2.6 0.00 0.00 0.00 38 1009.4
20260503231607 56 228 0.0 2.6 0.00 0.00 0.00 37 1009.2
20260503231104 57 212 0.0 2.6 0.00 0.00 0.00 37 1009.2
20260503230604 57 206 0.9 2.6 0.00 0.00 0.00 37 1009.2
20260503225605 57 306 0.9 2.6 0.00 0.00 0.00 36 1009.1
20260503225102 57 204 0.9 2.6 0.00 0.00 0.00 36 1009.0
20260503223605 57 213 0.9 3.5 0.00 0.00 0.00 34 1009.0
20260503223102 58 291 0.9 3.5 0.00 0.00 0.00 34 1009.0
20260503222604 58 242 0.9 3.5 0.00 0.00 0.00 34 1008.9
20260503222106 58 290 0.9 3.5 0.00 0.00 0.00 34 1008.8
20260503221605 58 243 1.7 4.3 0.00 0.00 0.00 33 1008.9
20260503221102 58 237 1.7 4.3 0.00 0.00 0.00 33 1008.8
20260503220603 58 0 1.7 4.3 0.00 0.00 0.00 32 1008.9
20260503215605 58 17 1.7 9.6 0.00 0.00 0.00 33 1008.7
20260503214606 58 251 1.7 5.2 0.00 0.00 0.00 32 1008.7
20260503214104 58 327 2.6 7.0 0.00 0.00 0.00 30 1008.7
20260503213606 58 272 1.7 7.0 0.00 0.00 0.00 32 1008.8
20260503213104 58 34 1.7 4.3 0.00 0.00 0.00 31 1008.6
20260503212607 58 244 1.7 6.1 0.00 0.00 0.00 29 1008.6
20260503212103 58 290 1.7 6.1 0.00 0.00 0.00 30 1008.6
20260503211606 58 348 1.7 7.8 0.00 0.00 0.00 30 1008.5
20260503211104 58 240 2.6 9.6 0.00 0.00 0.00 31 1008.6
20260503210104 58 5 1.7 7.8 0.00 0.00 0.00 32 1008.6
20260503205606 58 322 2.6 7.8 0.00 0.00 0.00 31 1008.6
20260503205104 58 80 2.6 7.0 0.00 0.00 0.00 32 1008.7
20260503204607 59 24 2.6 7.0 0.00 0.00 0.00 32 1008.7
20260503204104 59 216 2.6 7.8 0.00 0.00 0.00 29 1008.5
20260503203104 59 355 1.7 4.3 0.00 0.00 0.00 31 1008.5
20260503202606 60 235 1.7 4.3 0.00 0.00 0.00 33 1008.8
20260503201106 59 288 1.7 8.7 0.00 0.00 0.00 33 1008.7
20260503200605 59 250 1.7 8.7 0.00 0.00 0.00 33 1008.8
20260503200105 59 321 1.7 5.2 0.00 0.00 0.00 30 1008.7
20260503195607 59 242 1.7 4.3 0.00 0.00 0.00 32 1008.7
20260503195104 58 288 1.7 6.1 0.00 0.00 0.00 33 1008.9
20260503194606 58 0 1.7 6.1 0.00 0.00 0.00 34 1009.0
20260503194103 58 69 2.6 6.1 0.00 0.00 0.00 33 1009.1
20260503193605 58 257 2.6 6.1 0.00 0.00 0.00 33 1009.3
20260503193103 58 254 1.7 7.8 0.00 0.00 0.00 33 1009.4
20260503192605 58 282 1.7 7.8 0.00 0.00 0.00 32 1009.4
20260503191608 58 336 3.5 8.7 0.00 0.00 0.00 31 1009.4
20260503191104 58 0 2.6 8.7 0.00 0.00 0.00 35 1009.5
20260503190104 56 337 2.6 7.0 0.00 0.00 0.00 35 1009.4
20260503185608 57 31 3.5 7.0 0.00 0.00 0.00 34 1009.6
20260503185105 57 213 2.6 7.0 0.00 0.00 0.00 32 1009.6
20260503184609 58 252 2.6 7.0 0.00 0.00 0.00 34 1009.6
20260503184103 58 227 2.6 7.8 0.00 0.00 0.00 35 1009.6
20260503183605 58 98 1.7 7.8 0.00 0.00 0.00 36 1009.7
20260503183104 57 5 1.7 5.2 0.00 0.00 0.00 36 1009.8
20260503182606 57 328 2.6 4.3 0.00 0.00 0.00 35 1009.8
20260503182104 57 331 2.6 7.0 0.00 0.00 0.00 37 1009.7
20260503181605 56 297 2.6 7.0 0.00 0.00 0.00 38 1009.8
20260503181104 56 319 1.7 6.1 0.00 0.00 0.00 37 1009.9
20260503175606 54 234 1.7 5.2 0.00 0.00 0.00 38 1010.0
20260503174608 54 278 1.7 5.2 0.00 0.00 0.00 39 1010.2
20260503174105 53 239 2.6 6.1 0.00 0.00 0.00 42 1010.3
20260503173605 53 269 2.6 6.1 0.00 0.00 0.00 39 1010.3
20260503173105 53 346 2.6 7.8 0.00 0.00 0.00 40 1010.4
20260503172604 53 213 2.6 8.7 0.00 0.00 0.00 41 1010.4
20260503171606 53 199 1.7 7.0 0.00 0.00 0.00 41 1010.4
20260503170606 53 233 1.7 5.2 0.00 0.00 0.00 41 1010.4
20260503170105 53 252 1.7 4.3 0.00 0.00 0.00 43 1010.5
20260503160104 53 202 2.6 7.0 0.00 0.00 0.00 39 1010.5
20260503150607 54 232 2.6 7.0 0.00 0.00 0.00 35 1010.4
20260503150103 53 294 1.7 5.2 0.00 0.00 0.00 39 1010.5
20260503140106 51 215 1.7 7.8 0.00 0.00 0.00 47 1010.7
20260503131106 48 188 1.7 6.1 0.00 0.00 0.00 54 1010.8
20260503130605 48 90 1.7 6.1 0.00 0.00 0.00 54 1010.8
20260503130105 48 252 1.7 6.1 0.00 0.00 0.00 54 1010.9